Location: Kellogg
(38.0159°N, 90.0546°W)
Time: 01:32:39
(UTC+00:00)

Transit 2A - Pass Details

Date: 19 September 2024
Orbit: 590 x 960 km, 66.7° (Epoch: 09 October)

Event Time Altitude Azimuth Distance (km) Brightness Sun altitude
Rises 07:35:17 0° 339° (NNW) 3,630 9.8 -44.3°
Reaches altitude 10° 07:38:15 10° 350° (N) 2,655 9.1 -43.9°
Enters shadow 07:38:58 13° 354° (N) 2,440 8.9 -43.9°
